Location: Newark
(5.8900°S, 42.6378°W)
Time: 02:29:29
(UTC+00:00)

A-11 Canister half - All Passes

Search period start: 18 October 2019 00:00
Search period end: 28 October 2019 00:00
Orbit: 1514 x 1686 km, 47.2° (Epoch: 16 October)

Date Brightness Start Highest point End Pass type
(mag) Time Alt. Az. Time Alt. Az. Time Alt. Az.
18 Oct - 00:04:47 10° S 00:12:29 24° SE 00:20:09 10° E visible
18 Oct - 02:07:36 10° SW 02:17:49 79° NW 02:27:54 10° NE visible
18 Oct - 04:17:52 10° W 04:22:47 14° NW 04:27:41 10° NNW night (unlit)
18 Oct - 12:59:36 10° N 13:06:56 26° NE 13:14:15 10° ESE daylight
18 Oct - 15:02:26 10° NW 15:11:30 62° SW 15:20:48 10° SSE daylight
18 Oct - 17:14:51 10° SW 17:17:26 11° SW 17:20:03 10° SSW daylight
18 Oct - 23:42:09 10° S 23:49:27 22° SE 23:56:44 10° E visible
19 Oct - 01:44:38 10° SW 01:54:52 85° NW 02:05:00 10° NE visible
19 Oct - 03:54:07 10° W 03:59:48 16° NW 04:05:28 10° NNW night (unlit)
19 Oct - 12:37:03 10° N 12:44:01 24° NE 12:50:58 10° E daylight
19 Oct - 14:39:28 10° NW 14:48:35 67° SW 14:57:56 10° SSE daylight
19 Oct - 16:50:45 10° WSW 16:54:22 13° SW 16:58:03 10° SSW daylight
19 Oct - 23:19:32 10° S 23:26:25 20° SE 23:33:17 10° E visible
20 Oct - 01:21:41 10° SW 01:31:55 89° SE 01:42:05 10° NE visible
20 Oct - 03:30:29 10° W 03:36:49 18° NW 03:43:08 10° N night (unlit)
20 Oct - 12:14:31 10° N 12:21:05 21° NE 12:27:39 10° E daylight
20 Oct - 14:16:30 10° NW 14:25:42 73° SW 14:35:03 10° SE daylight
20 Oct - 16:26:56 10° WSW 16:31:19 14° SW 16:35:48 10° S daylight
20 Oct - 22:56:58 10° S 23:03:22 18° SE 23:09:45 10° E visible
21 Oct - 00:58:45 10° SW 01:08:58 83° SE 01:19:08 10° NE visible
21 Oct - 03:06:58 10° W 03:13:51 20° NW 03:20:42 10° N night (unlit)
21 Oct - 11:52:04 10° N 11:58:11 19° NE 12:04:15 10° E daylight
21 Oct - 13:53:35 10° NW 14:02:48 79° SW 14:12:11 10° SE daylight
21 Oct - 16:03:16 10° WSW 16:08:17 15° SW 16:13:24 10° S daylight
21 Oct - 22:34:29 10° S 22:40:19 17° SE 22:46:08 10° ESE visible
22 Oct - 00:35:51 10° SW 00:46:02 78° SE 00:56:11 10° NE visible
22 Oct - 02:43:31 10° W 02:50:53 23° NW 02:58:13 10° N night (unlit)
22 Oct - 11:29:40 10° NNE 11:35:14 17° NE 11:40:46 10° E daylight
22 Oct - 13:30:40 10° NW 13:39:54 86° SW 13:49:16 10° SE daylight
22 Oct - 15:39:44 10° W 15:45:16 17° SW 15:50:55 10° S daylight
22 Oct - 22:12:04 10° S 22:17:15 15° SE 22:22:26 10° ESE visible
23 Oct - 00:12:56 10° SSW 00:23:05 72° SE 00:33:11 10° NE visible
23 Oct - 02:20:09 10° WSW 02:27:55 25° NW 02:35:40 10° N night (unlit)
23 Oct - 11:07:22 10° NNE 11:12:18 15° NE 11:17:12 10° E daylight
23 Oct - 13:07:46 10° NW 13:17:01 88° NE 13:26:22 10° SE daylight
23 Oct - 15:16:16 10° W 15:22:16 19° SW 15:28:23 10° S daylight
23 Oct - 21:49:46 10° SSE 21:54:10 13° SE 21:58:34 10° ESE visible
23 Oct - 23:50:04 10° SSW 00:00:07 67° SE 00:10:11 10° NE visible
24 Oct - 01:56:49 10° WSW 02:04:57 27° NW 02:13:04 10° N visible
24 Oct - 10:45:13 10° NNE 10:49:21 14° NE 10:53:28 10° ENE daylight
24 Oct - 12:44:53 10° NW 12:54:07 81° NE 13:03:27 10° SE daylight
24 Oct - 14:52:51 10° W 14:59:16 21° SW 15:05:49 10° S daylight
24 Oct - 21:27:40 10° SSE 21:31:05 12° SE 21:34:30 10° ESE visible
24 Oct - 23:27:12 10° SSW 23:37:09 61° SE 23:47:09 10° NE visible
25 Oct - 01:33:33 10° WSW 01:42:00 30° NW 01:50:27 10° N visible
25 Oct - 10:23:18 10° NNE 10:26:24 12° NE 10:29:28 10° ENE daylight
25 Oct - 12:22:01 10° NNW 12:31:14 75° NE 12:40:30 10° SE daylight
25 Oct - 14:29:30 10° W 14:36:17 23° SW 14:43:12 10° S daylight
25 Oct - 21:06:03 10° SSE 21:07:58 11° SE 21:09:55 10° SE visible
25 Oct - 23:04:21 10° SSW 23:14:12 57° SE 23:24:06 10° NE visible
26 Oct - 01:10:20 10° WSW 01:19:02 33° NW 01:27:47 10° N visible
26 Oct - 10:02:11 10° NE 10:03:26 10° NE 10:04:41 10° NE daylight
26 Oct - 11:59:10 10° NNW 12:08:21 69° NE 12:17:33 10° SE daylight
26 Oct - 14:06:12 10° W 14:13:19 25° SW 14:20:34 10° S daylight
26 Oct - 22:41:32 10° SSW 22:51:14 52° SE 23:01:01 10° ENE visible
27 Oct - 00:47:08 10° WSW 00:56:05 36° NW 01:05:06 10° NNE visible
27 Oct - 11:36:20 10° NNW 11:45:28 63° NE 11:54:35 10° SE daylight
27 Oct - 13:42:56 10° W 13:50:22 27° SW 13:57:54 10° S daylight
27 Oct - 22:18:42 10° SSW 22:28:16 48° SE 22:37:54 10° ENE visible
